FLOCK 2K-7 (42862 NORAD) Tracking and Keplerian Element Data

This shows tracking and keplerian element data for the satellite.

Feedback or suggestion? Click here.




ElementValue
Catalog42862
NameFLOCK 2K-7
Epoch Orbit23593
Epoch Day268.86808548
Epoch Year2021
RAAN116.8623
Inclination96.8409
Eccentricity0.000957
Argument of Perigee66.4806
Mean Anonmoly293.745
Mean Motion15.47852392
Decay Rate0.00011268
L11 42862U 17042AP 21268.86808548 .00011268 00000-0 21793-3 0 9995
L22 42862 96.8409 116.8623 0009570 66.4806 293.7450 15.47852392235936

Live tracking and technical data element details for FLOCK 2K-7 (NORAD 42862). FLOCK 2K-7 can be tracked NOW for your location showing map with azimuth and elevation plus other details from your city location.

Track the satellite on the map from your city or location and see movement details for azimuth, elevation, latitude, longitude, range, height, and movement on the map or in text.







IsCatalogInMostPopularTable: catalog: 42862, numindb: 543
Update: records affected: 1



GetName: 42862 FLOCK 2K-7

Hit Count: updated at: Mon, 27 Sep 2021 00:52:58 GMT